Location: Newark
(35.8833°N, 14.5000°E)
Time: 01:57:51
(UTC+00:00)

UNISAT 6 - Pass Details

Date: 25 May 2019
Orbit: 606 x 690 km, 97.8° (Epoch: 16 June)

Event Time Altitude Azimuth Distance (km) Brightness Sun altitude
Rises 19:16:39 0° 25° (NNE) 2,907 ? -12.6°
Reaches altitude 10° 19:19:09 10° 38° (NE) 1,985 ? -13.0°
Maximum altitude 19:22:48 27° 96° (E) 1,185 ? -13.5°
Enters shadow 19:24:16 22° 129° (SE) 1,338 ? -13.8°
